| time (UTC) | temp C | wind direction | speed KPH | gust KPH | rain 1hr cm | rain 24hr cm | rain mn cm | humidity % | barometer mb |
| 20260506201548 | 16 | 225 | 3.2 | 16.1 | 0.00 | 0.00 | 0.00 | 79 | 1023.6 |
| 20260506201040 | 16 | 257 | 6.4 | 16.1 | 0.00 | 0.00 | 0.00 | 80 | 1023.8 |
| 20260506200548 | 16 | 245 | 3.2 | 12.9 | 0.00 | 0.00 | 0.00 | 81 | 1023.8 |
| 20260506200055 | 16 | 259 | 4.8 | 11.3 | 0.00 | 0.00 | 0.00 | 80 | 1023.8 |
| 20260506195541 | 16 | 265 | 3.2 | 12.9 | 0.00 | 0.00 | 0.00 | 81 | 1023.8 |
| 20260506195041 | 16 | 232 | 3.2 | 12.9 | 0.00 | 0.00 | 0.00 | 81 | 1023.8 |
| 20260506194550 | 16 | 294 | 6.4 | 14.5 | 0.00 | 0.00 | 0.00 | 80 | 1024.0 |
| 20260506194042 | 16 | 257 | 4.8 | 14.5 | 0.00 | 0.00 | 0.00 | 80 | 1024.0 |
| 20260506193543 | 15 | 233 | 6.4 | 16.1 | 0.00 | 0.00 | 0.00 | 81 | 1024.1 |
| 20260506193056 | 15 | 261 | 6.4 | 16.1 | 0.00 | 0.00 | 0.00 | 81 | 1024.1 |
| 20260506192542 | 15 | 244 | 4.8 | 14.5 | 0.00 | 0.00 | 0.00 | 82 | 1024.1 |
| 20260506192043 | 15 | 269 | 4.8 | 12.9 | 0.00 | 0.00 | 0.00 | 82 | 1024.1 |
| 20260506191553 | 15 | 195 | 4.8 | 12.9 | 0.00 | 0.00 | 0.00 | 83 | 1024.2 |
| 20260506191042 | 15 | 9 | 6.4 | 11.3 | 0.00 | 0.00 | 0.00 | 81 | 1024.3 |
| 20260506190543 | 15 | 225 | 4.8 | 12.9 | 0.00 | 0.00 | 0.00 | 83 | 1024.4 |
| 20260506190054 | 15 | 239 | 3.2 | 14.5 | 0.00 | 0.00 | 0.00 | 82 | 1024.4 |
| 20260506185542 | 15 | 216 | 6.4 | 14.5 | 0.00 | 0.00 | 0.00 | 82 | 1024.3 |
| 20260506185041 | 15 | 286 | 6.4 | 11.3 | 0.00 | 0.00 | 0.00 | 81 | 1024.3 |
| 20260506184551 | 15 | 219 | 4.8 | 11.3 | 0.00 | 0.00 | 0.00 | 82 | 1024.3 |
| 20260506184043 | 15 | 239 | 4.8 | 11.3 | 0.00 | 0.00 | 0.00 | 82 | 1024.2 |
| 20260506183544 | 15 | 249 | 4.8 | 11.3 | 0.00 | 0.00 | 0.00 | 82 | 1024.3 |
| 20260506183055 | 15 | 233 | 3.2 | 11.3 | 0.00 | 0.00 | 0.00 | 82 | 1024.3 |
| 20260506182541 | 15 | 221 | 3.2 | 11.3 | 0.00 | 0.00 | 0.00 | 83 | 1024.3 |
| 20260506182042 | 14 | 225 | 3.2 | 9.7 | 0.00 | 0.00 | 0.00 | 82 | 1024.3 |
| 20260506181554 | 14 | 265 | 3.2 | 11.3 | 0.00 | 0.00 | 0.00 | 82 | 1024.3 |
| 20260506181041 | 15 | 225 | 4.8 | 11.3 | 0.00 | 0.00 | 0.00 | 82 | 1024.3 |
| 20260506180545 | 15 | 223 | 4.8 | 11.3 | 0.00 | 0.00 | 0.00 | 82 | 1024.2 |
| 20260506180054 | 14 | 34 | 3.2 | 11.3 | 0.00 | 0.00 | 0.00 | 83 | 1024.2 |
| 20260506175540 | 14 | 275 | 3.2 | 11.3 | 0.00 | 0.00 | 0.00 | 84 | 1024.3 |
| 20260506175044 | 13 | 226 | 3.2 | 9.7 | 0.00 | 0.00 | 0.00 | 85 | 1024.2 |
| 20260506174548 | 13 | 287 | 3.2 | 8.0 | 0.00 | 0.00 | 0.00 | 85 | 1024.2 |
| 20260506174040 | 13 | 226 | 3.2 | 8.0 | 0.00 | 0.00 | 0.00 | 84 | 1024.1 |
| 20260506173541 | 13 | 30 | 3.2 | 11.3 | 0.00 | 0.00 | 0.00 | 85 | 1024.2 |
| 20260506173049 | 13 | 252 | 3.2 | 11.3 | 0.00 | 0.00 | 0.00 | 85 | 1024.3 |
| 20260506172541 | 13 | 213 | 4.8 | 12.9 | 0.00 | 0.00 | 0.00 | 85 | 1024.3 |
| 20260506172041 | 13 | 219 | 6.4 | 12.9 | 0.00 | 0.00 | 0.00 | 84 | 1024.3 |
| 20260506171549 | 13 | 178 | 4.8 | 8.0 | 0.00 | 0.00 | 0.00 | 85 | 1024.3 |
| 20260506171043 | 13 | 221 | 1.6 | 9.7 | 0.00 | 0.00 | 0.00 | 86 | 1024.4 |
| 20260506170541 | 13 | 196 | 1.6 | 9.7 | 0.00 | 0.00 | 0.00 | 86 | 1024.3 |
| 20260506170054 | 13 | 190 | 1.6 | 9.7 | 0.00 | 0.00 | 0.00 | 86 | 1024.2 |
| 20260506165546 | 13 | 254 | 1.6 | 9.7 | 0.00 | 0.00 | 0.00 | 87 | 1024.3 |
| 20260506165041 | 12 | 225 | 3.2 | 11.3 | 0.00 | 0.00 | 0.00 | 87 | 1024.3 |
| 20260506164606 | 12 | 247 | 3.2 | 11.3 | 0.00 | 0.00 | 0.00 | 87 | 1024.2 |
| 20260506164042 | 12 | 193 | 4.8 | 11.3 | 0.00 | 0.00 | 0.00 | 87 | 1024.3 |
| 20260506163540 | 12 | 221 | 4.8 | 11.3 | 0.00 | 0.00 | 0.00 | 87 | 1024.2 |
| 20260506163056 | 12 | 245 | 1.6 | 12.9 | 0.00 | 0.00 | 0.00 | 87 | 1024.1 |
| 20260506162545 | 12 | 247 | 1.6 | 12.9 | 0.00 | 0.00 | 0.00 | 87 | 1024.2 |
| 20260506162042 | 12 | 241 | 4.8 | 12.9 | 0.00 | 0.00 | 0.00 | 87 | 1024.2 |
| 20260506161547 | 12 | 221 | 3.2 | 8.0 | 0.00 | 0.00 | 0.00 | 87 | 1024.2 |
| 20260506161041 | 12 | 241 | 3.2 | 8.0 | 0.00 | 0.00 | 0.00 | 87 | 1024.1 |
| 20260506160542 | 12 | 61 | 3.2 | 8.0 | 0.00 | 0.00 | 0.00 | 87 | 1024.2 |
| 20260506160057 | 12 | 257 | 3.2 | 8.0 | 0.00 | 0.00 | 0.00 | 88 | 1024.2 |
| 20260506155541 | 12 | 76 | 3.2 | 8.0 | 0.00 | 0.00 | 0.00 | 88 | 1024.1 |
| 20260506155041 | 11 | 215 | 3.2 | 8.0 | 0.00 | 0.00 | 0.00 | 88 | 1024.2 |
| 20260506154556 | 12 | 237 | 3.2 | 8.0 | 0.00 | 0.00 | 0.00 | 88 | 1024.1 |
| 20260506154041 | 11 | 86 | 1.6 | 4.8 | 0.00 | 0.00 | 0.00 | 91 | 1024.2 |
| 20260506153544 | 11 | 9 | 0.0 | 4.8 | 0.00 | 0.00 | 0.00 | 91 | 1024.2 |
| 20260506153051 | 11 | 212 | 1.6 | 4.8 | 0.00 | 0.00 | 0.00 | 90 | 1024.2 |
| 20260506152542 | 11 | 265 | 1.6 | 4.8 | 0.00 | 0.00 | 0.00 | 91 | 1024.1 |
| 20260506152043 | 11 | 0 | 1.6 | 4.8 | 0.00 | 0.00 | 0.00 | 91 | 1024.1 |
| 20260506151553 | 11 | 275 | 1.6 | 3.2 | 0.00 | 0.00 | 0.00 | 92 | 1024.2 |
| 20260506151041 | 11 | 250 | 1.6 | 3.2 | 0.00 | 0.00 | 0.00 | 92 | 1024.1 |
| 20260506150544 | 10 | 51 | 0.0 | 3.2 | 0.00 | 0.00 | 0.00 | 93 | 1024.0 |
| 20260506145540 | 10 | 221 | 1.6 | 3.2 | 0.00 | 0.00 | 0.00 | 93 | 1024.1 |
| 20260506145041 | 10 | 221 | 0.0 | 3.2 | 0.00 | 0.00 | 0.00 | 93 | 1024.0 |
| 20260506144555 | 10 | 0 | 0.0 | 3.2 | 0.00 | 0.00 | 0.00 | 94 | 1024.0 |
| 20260506144041 | 10 | 178 | 0.0 | 3.2 | 0.00 | 0.00 | 0.00 | 93 | 1023.9 |
| 20260506143541 | 10 | 0 | 0.0 | 3.2 | 0.00 | 0.00 | 0.00 | 93 | 1024.0 |
| 20260506143056 | 10 | 212 | 0.0 | 4.8 | 0.00 | 0.00 | 0.00 | 93 | 1023.9 |
| 20260506142540 | 10 | 51 | 0.0 | 4.8 | 0.00 | 0.00 | 0.00 | 93 | 1024.0 |
| 20260506142041 | 10 | 296 | 1.6 | 4.8 | 0.00 | 0.00 | 0.00 | 93 | 1023.9 |
| 20260506141549 | 10 | 221 | 1.6 | 3.2 | 0.00 | 0.00 | 0.00 | 93 | 1023.8 |
| 20260506141042 | 10 | 212 | 1.6 | 3.2 | 0.00 | 0.00 | 0.00 | 93 | 1023.6 |
| 20260506140542 | 10 | 265 | 1.6 | 3.2 | 0.00 | 0.00 | 0.00 | 93 | 1023.7 |
| 20260506140052 | 10 | 0 | 0.0 | 3.2 | 0.00 | 0.00 | 0.00 | 93 | 1023.6 |
| 20260506135542 | 10 | 221 | 1.6 | 4.8 | 0.00 | 0.00 | 0.00 | 93 | 1023.5 |
| 20260506135042 | 10 | 232 | 1.6 | 4.8 | 0.00 | 0.00 | 0.00 | 93 | 1023.5 |
| 20260506134551 | 10 | 221 | 0.0 | 6.4 | 0.00 | 0.00 | 0.00 | 93 | 1023.5 |
| 20260506134044 | 10 | 212 | 0.0 | 6.4 | 0.00 | 0.00 | 0.00 | 93 | 1023.3 |
| 20260506133542 | 10 | 265 | 0.0 | 4.8 | 0.00 | 0.00 | 0.00 | 93 | 1023.4 |
| 20260506133107 | 10 | 214 | 0.0 | 4.8 | 0.00 | 0.00 | 0.00 | 93 | 1023.4 |
| 20260506132541 | 10 | 93 | 0.0 | 4.8 | 0.00 | 0.00 | 0.00 | 93 | 1023.4 |
| 20260506132043 | 10 | 292 | 0.0 | 6.4 | 0.00 | 0.00 | 0.00 | 93 | 1023.3 |
| 20260506131558 | 10 | 250 | 1.6 | 6.4 | 0.00 | 0.00 | 0.00 | 93 | 1023.3 |
| 20260506131044 | 10 | 229 | 1.6 | 4.8 | 0.00 | 0.00 | 0.00 | 93 | 1023.2 |
| 20260506130541 | 10 | 221 | 1.6 | 4.8 | 0.00 | 0.00 | 0.00 | 93 | 1023.1 |
| 20260506130049 | 10 | 210 | 1.6 | 4.8 | 0.00 | 0.00 | 0.00 | 93 | 1023.2 |
| 20260506125542 | 10 | 0 | 1.6 | 4.8 | 0.00 | 0.00 | 0.00 | 93 | 1023.0 |
| 20260506125040 | 10 | 275 | 1.6 | 4.8 | 0.00 | 0.00 | 0.00 | 93 | 1023.1 |
| 20260506124548 | 10 | 309 | 1.6 | 4.8 | 0.00 | 0.00 | 0.00 | 92 | 1023.0 |
| 20260506124045 | 10 | 0 | 1.6 | 4.8 | 0.00 | 0.00 | 0.00 | 92 | 1023.0 |
| 20260506123543 | 10 | 239 | 1.6 | 4.8 | 0.00 | 0.00 | 0.00 | 92 | 1022.9 |
| 20260506123049 | 10 | 239 | 0.0 | 4.8 | 0.00 | 0.00 | 0.00 | 92 | 1022.9 |
| 20260506122542 | 10 | 190 | 1.6 | 4.8 | 0.00 | 0.00 | 0.00 | 93 | 1022.9 |
| 20260506122041 | 10 | 0 | 1.6 | 4.8 | 0.00 | 0.00 | 0.00 | 93 | 1022.9 |
| 20260506121553 | 10 | 254 | 1.6 | 4.8 | 0.00 | 0.00 | 0.00 | 93 | 1022.9 |
| 20260506121041 | 10 | 221 | 1.6 | 4.8 | 0.00 | 0.00 | 0.00 | 93 | 1022.8 |
| 20260506120541 | 10 | 178 | 1.6 | 6.4 | 0.00 | 0.00 | 0.00 | 93 | 1022.7 |
| 20260506120059 | 10 | 239 | 1.6 | 6.4 | 0.00 | 0.00 | 0.00 | 93 | 1022.9 |
| 20260506115541 | 10 | 226 | 1.6 | 6.4 | 0.00 | 0.00 | 0.00 | 93 | 1022.8 |
| 20260506115042 | 10 | 214 | 3.2 | 4.8 | 0.00 | 0.00 | 0.00 | 93 | 1022.7 |
| 20260506114550 | 10 | 221 | 1.6 | 6.4 | 0.00 | 0.00 | 0.00 | 93 | 1022.7 |
| 20260506114046 | 10 | 221 | 1.6 | 6.4 | 0.00 | 0.00 | 0.00 | 92 | 1022.9 |
| 20260506113542 | 10 | 221 | 3.2 | 6.4 | 0.00 | 0.00 | 0.00 | 92 | 1022.7 |
| 20260506113048 | 10 | 234 | 1.6 | 6.4 | 0.00 | 0.00 | 0.00 | 92 | 1022.7 |
| 20260506112545 | 10 | 201 | 3.2 | 6.4 | 0.00 | 0.00 | 0.00 | 92 | 1022.6 |
| 20260506112041 | 10 | 217 | 3.2 | 6.4 | 0.00 | 0.00 | 0.00 | 92 | 1022.6 |
| 20260506111550 | 10 | 236 | 1.6 | 6.4 | 0.00 | 0.00 | 0.00 | 92 | 1022.4 |
| 20260506111041 | 10 | 242 | 3.2 | 9.7 | 0.00 | 0.00 | 0.00 | 92 | 1022.6 |
| 20260506110541 | 10 | 252 | 4.8 | 9.7 | 0.00 | 0.00 | 0.00 | 92 | 1022.5 |
| 20260506110058 | 10 | 208 | 1.6 | 8.0 | 0.00 | 0.00 | 0.00 | 92 | 1022.5 |
| 20260506105541 | 10 | 242 | 3.2 | 11.3 | 0.00 | 0.00 | 0.00 | 92 | 1022.4 |
| 20260506105046 | 10 | 9 | 3.2 | 11.3 | 0.00 | 0.00 | 0.00 | 92 | 1022.4 |
| 20260506104558 | 10 | 196 | 3.2 | 8.0 | 0.00 | 0.00 | 0.00 | 92 | 1022.4 |
| 20260506104041 | 10 | 213 | 3.2 | 8.0 | 0.00 | 0.00 | 0.00 | 92 | 1022.3 |
| 20260506103541 | 10 | 219 | 1.6 | 8.0 | 0.00 | 0.00 | 0.00 | 92 | 1022.4 |
| 20260506103049 | 10 | 225 | 3.2 | 8.0 | 0.00 | 0.00 | 0.00 | 92 | 1022.4 |
| 20260506102544 | 10 | 259 | 3.2 | 11.3 | 0.00 | 0.00 | 0.00 | 92 | 1022.4 |
| 20260506102045 | 10 | 162 | 3.2 | 11.3 | 0.00 | 0.00 | 0.00 | 92 | 1022.4 |
| 20260506101552 | 10 | 229 | 3.2 | 11.3 | 0.00 | 0.00 | 0.00 | 92 | 1022.2 |
| 20260506101041 | 10 | 255 | 3.2 | 11.3 | 0.00 | 0.00 | 0.00 | 92 | 1022.3 |
| 20260506100543 | 10 | 218 | 3.2 | 11.3 | 0.00 | 0.00 | 0.00 | 93 | 1022.1 |
| 20260506100058 | 10 | 209 | 3.2 | 11.3 | 0.00 | 0.00 | 0.00 | 93 | 1022.2 |
| 20260506095542 | 10 | 242 | 3.2 | 11.3 | 0.00 | 0.00 | 0.00 | 93 | 1022.2 |
| 20260506095042 | 10 | 229 | 4.8 | 11.3 | 0.00 | 0.00 | 0.00 | 93 | 1022.2 |
| 20260506094600 | 10 | 229 | 3.2 | 9.7 | 0.00 | 0.00 | 0.00 | 93 | 1022.4 |
| 20260506094041 | 10 | 196 | 3.2 | 8.0 | 0.00 | 0.00 | 0.00 | 93 | 1022.4 |
| 20260506093541 | 10 | 201 | 3.2 | 8.0 | 0.00 | 0.00 | 0.00 | 93 | 1022.4 |
| 20260506093050 | 10 | 212 | 3.2 | 8.0 | 0.00 | 0.00 | 0.00 | 93 | 1022.4 |
| 20260506092541 | 10 | 225 | 1.6 | 6.4 | 0.00 | 0.00 | 0.00 | 93 | 1022.4 |
| 20260506092041 | 10 | 265 | 3.2 | 11.3 | 0.00 | 0.00 | 0.00 | 93 | 1022.4 |
| 20260506091549 | 10 | 225 | 1.6 | 11.3 | 0.00 | 0.00 | 0.00 | 93 | 1022.4 |
| 20260506091043 | 10 | 215 | 4.8 | 11.3 | 0.00 | 0.00 | 0.00 | 93 | 1022.4 |
| 20260506090540 | 10 | 291 | 1.6 | 6.4 | 0.00 | 0.00 | 0.00 | 93 | 1022.3 |
| 20260506090053 | 10 | 221 | 1.6 | 9.7 | 0.00 | 0.00 | 0.00 | 93 | 1022.3 |
| 20260506085541 | 10 | 162 | 1.6 | 9.7 | 0.00 | 0.00 | 0.00 | 93 | 1022.3 |
| 20260506085041 | 10 | 221 | 4.8 | 11.3 | 0.00 | 0.00 | 0.00 | 93 | 1022.4 |
| 20260506084618 | 10 | 226 | 1.6 | 11.3 | 0.00 | 0.00 | 0.00 | 93 | 1022.4 |
| 20260506084041 | 10 | 227 | 3.2 | 11.3 | 0.00 | 0.00 | 0.00 | 93 | 1022.4 |
| 20260506083542 | 10 | 265 | 3.2 | 11.3 | 0.00 | 0.00 | 0.00 | 93 | 1022.4 |
| 20260506083053 | 10 | 216 | 4.8 | 11.3 | 0.00 | 0.00 | 0.00 | 93 | 1022.5 |
| 20260506082538 | 10 | 232 | 3.2 | 12.9 | 0.00 | 0.00 | 0.00 | 93 | 1022.5 |
| 20260506082043 | 10 | 198 | 3.2 | 12.9 | 0.00 | 0.00 | 0.00 | 93 | 1022.5 |
| 20260506081557 | 10 | 164 | 3.2 | 8.0 | 0.00 | 0.00 | 0.00 | 93 | 1022.5 |
| 20260506081041 | 10 | 221 | 3.2 | 11.3 | 0.00 | 0.00 | 0.00 | 93 | 1022.6 |
| 20260506080541 | 10 | 209 | 3.2 | 11.3 | 0.00 | 0.00 | 0.00 | 93 | 1022.6 |
| 20260506073050 | 10 | 250 | 3.2 | 12.9 | 0.00 | 0.00 | 0.00 | 93 | 1022.2 |
| 20260506072542 | 10 | 265 | 3.2 | 12.9 | 0.00 | 0.00 | 0.00 | 93 | 1022.2 |
| 20260506072042 | 10 | 225 | 3.2 | 11.3 | 0.00 | 0.00 | 0.00 | 94 | 1022.1 |
| 20260506071549 | 10 | 265 | 3.2 | 14.5 | 0.00 | 0.00 | 0.00 | 94 | 1022.0 |
| 20260506071041 | 10 | 236 | 4.8 | 14.5 | 0.00 | 0.00 | 0.00 | 94 | 1022.1 |
| 20260506070538 | 10 | 239 | 4.8 | 12.9 | 0.00 | 0.00 | 0.00 | 94 | 1022.0 |
| 20260506062041 | 10 | 209 | 4.8 | 12.9 | 0.00 | 0.00 | 0.00 | 95 | 1021.5 |
| 20260506061552 | 10 | 225 | 3.2 | 12.9 | 0.00 | 0.00 | 0.00 | 95 | 1021.8 |
| 20260506061043 | 10 | 241 | 1.6 | 11.3 | 0.00 | 0.00 | 0.00 | 95 | 1021.6 |
| 20260506060542 | 10 | 190 | 3.2 | 11.3 | 0.00 | 0.00 | 0.00 | 95 | 1021.6 |
| 20260506051042 | 10 | 205 | 4.8 | 14.5 | 0.00 | 0.00 | 0.00 | 94 | 1021.3 |
| 20260506050544 | 10 | 243 | 4.8 | 12.9 | 0.00 | 0.00 | 0.00 | 94 | 1021.3 |
| 20260506045041 | 10 | 245 | 4.8 | 14.5 | 0.00 | 0.00 | 0.00 | 94 | 1021.0 |
| 20260506044553 | 10 | 225 | 4.8 | 14.5 | 0.00 | 0.00 | 0.00 | 94 | 1021.1 |
| 20260506044045 | 10 | 257 | 6.4 | 12.9 | 0.00 | 0.00 | 0.00 | 94 | 1020.9 |
| 20260506043544 | 10 | 212 | 4.8 | 12.9 | 0.00 | 0.00 | 0.00 | 93 | 1021.0 |
| 20260506043059 | 10 | 212 | 4.8 | 12.9 | 0.00 | 0.00 | 0.00 | 93 | 1020.8 |
| 20260506042542 | 10 | 239 | 4.8 | 12.9 | 0.00 | 0.00 | 0.00 | 93 | 1020.9 |
| 20260506042041 | 10 | 209 | 3.2 | 9.7 | 0.00 | 0.00 | 0.00 | 93 | 1020.7 |
| 20260506041604 | 10 | 210 | 3.2 | 12.9 | 0.00 | 0.00 | 0.00 | 92 | 1020.7 |
| 20260506041043 | 10 | 207 | 3.2 | 12.9 | 0.00 | 0.00 | 0.00 | 92 | 1020.7 |
| 20260506040542 | 10 | 225 | 4.8 | 12.9 | 0.00 | 0.00 | 0.00 | 92 | 1020.7 |
| 20260506040053 | 10 | 212 | 3.2 | 12.9 | 0.00 | 0.00 | 0.00 | 91 | 1020.5 |
| 20260506035541 | 10 | 239 | 4.8 | 14.5 | 0.00 | 0.00 | 0.00 | 91 | 1020.5 |
| 20260506035041 | 10 | 165 | 3.2 | 14.5 | 0.00 | 0.00 | 0.00 | 91 | 1020.6 |
| 20260506034551 | 10 | 223 | 4.8 | 14.5 | 0.00 | 0.00 | 0.00 | 91 | 1020.5 |
| 20260506034043 | 10 | 203 | 6.4 | 16.1 | 0.00 | 0.00 | 0.00 | 91 | 1020.3 |
| 20260506033542 | 10 | 213 | 4.8 | 16.1 | 0.00 | 0.00 | 0.00 | 90 | 1020.3 |
| 20260506033048 | 10 | 242 | 4.8 | 12.9 | 0.00 | 0.00 | 0.00 | 90 | 1020.2 |
| 20260506032541 | 10 | 235 | 4.8 | 16.1 | 0.00 | 0.00 | 0.00 | 90 | 1020.2 |
| 20260506032041 | 10 | 263 | 6.4 | 16.1 | 0.00 | 0.00 | 0.00 | 90 | 1020.1 |
| 20260506031555 | 11 | 238 | 4.8 | 14.5 | 0.00 | 0.00 | 0.00 | 90 | 1019.9 |
| 20260506031041 | 11 | 221 | 4.8 | 14.5 | 0.00 | 0.00 | 0.00 | 90 | 1019.9 |
| 20260506030544 | 11 | 192 | 4.8 | 14.5 | 0.00 | 0.00 | 0.00 | 90 | 1019.9 |
| 20260506030050 | 11 | 267 | 6.4 | 14.5 | 0.00 | 0.00 | 0.00 | 89 | 1019.7 |
| 20260506025543 | 11 | 219 | 4.8 | 16.1 | 0.00 | 0.00 | 0.00 | 89 | 1019.7 |
| 20260506025047 | 11 | 239 | 3.2 | 17.7 | 0.00 | 0.00 | 0.00 | 89 | 1019.8 |
| 20260506024550 | 11 | 229 | 8.0 | 17.7 | 0.00 | 0.00 | 0.00 | 89 | 1019.9 |
| 20260506024042 | 11 | 271 | 8.0 | 17.7 | 0.00 | 0.00 | 0.00 | 89 | 1019.8 |
| 20260506023542 | 11 | 230 | 6.4 | 14.5 | 0.00 | 0.00 | 0.00 | 89 | 1019.8 |
| 20260506023102 | 11 | 291 | 4.8 | 12.9 | 0.00 | 0.00 | 0.00 | 89 | 1019.7 |
| 20260506022541 | 11 | 115 | 3.2 | 17.7 | 0.00 | 0.00 | 0.00 | 89 | 1019.8 |
| 20260506022040 | 11 | 247 | 6.4 | 17.7 | 0.00 | 0.00 | 0.00 | 88 | 1019.6 |
| 20260506021609 | 11 | 219 | 6.4 | 17.7 | 0.00 | 0.00 | 0.00 | 88 | 1019.6 |
| 20260506021049 | 11 | 225 | 6.4 | 16.1 | 0.00 | 0.00 | 0.00 | 88 | 1019.6 |
| 20260506020541 | 11 | 219 | 4.8 | 16.1 | 0.00 | 0.00 | 0.00 | 88 | 1019.4 |
| 20260506020048 | 11 | 208 | 6.4 | 20.9 | 0.00 | 0.00 | 0.00 | 87 | 1019.5 |
| 20260506015543 | 11 | 239 | 6.4 | 20.9 | 0.00 | 0.00 | 0.00 | 87 | 1019.4 |
| 20260506015049 | 11 | 242 | 6.4 | 24.1 | 0.00 | 0.00 | 0.00 | 87 | 1019.4 |
| 20260506014553 | 11 | 221 | 6.4 | 24.1 | 0.00 | 0.00 | 0.00 | 86 | 1019.4 |
| 20260506014047 | 11 | 277 | 6.4 | 19.3 | 0.00 | 0.00 | 0.00 | 86 | 1019.4 |
| 20260506013544 | 11 | 265 | 6.4 | 20.9 | 0.00 | 0.00 | 0.00 | 86 | 1019.4 |
| 20260506013100 | 11 | 219 | 6.4 | 20.9 | 0.00 | 0.00 | 0.00 | 86 | 1019.3 |
| 20260506012541 | 11 | 229 | 8.0 | 20.9 | 0.00 | 0.00 | 0.00 | 86 | 1019.3 |
| 20260506012042 | 11 | 221 | 8.0 | 17.7 | 0.00 | 0.00 | 0.00 | 86 | 1019.4 |
| 20260506011611 | 11 | 246 | 6.4 | 16.1 | 0.00 | 0.00 | 0.00 | 86 | 1019.4 |
| 20260506011042 | 11 | 298 | 4.8 | 16.1 | 0.00 | 0.00 | 0.00 | 87 | 1019.3 |
| 20260506010543 | 11 | 261 | 4.8 | 20.9 | 0.00 | 0.00 | 0.00 | 88 | 1019.5 |
| 20260506010058 | 11 | 225 | 6.4 | 20.9 | 0.00 | 0.00 | 0.00 | 87 | 1019.4 |
| 20260506005543 | 11 | 207 | 6.4 | 14.5 | 0.00 | 0.00 | 0.00 | 87 | 1019.3 |
| 20260506005044 | 11 | 259 | 6.4 | 14.5 | 0.00 | 0.00 | 0.00 | 86 | 1019.3 |
| 20260506004550 | 12 | 205 | 4.8 | 14.5 | 0.00 | 0.00 | 0.00 | 87 | 1019.3 |
| 20260506004043 | 12 | 250 | 4.8 | 14.5 | 0.00 | 0.00 | 0.00 | 87 | 1019.2 |
| 20260506003541 | 12 | 221 | 4.8 | 19.3 | 0.00 | 0.00 | 0.00 | 89 | 1019.4 |
| 20260506003049 | 11 | 201 | 6.4 | 19.3 | 0.00 | 0.00 | 0.00 | 88 | 1019.3 |
| 20260506002540 | 11 | 217 | 8.0 | 16.1 | 0.00 | 0.00 | 0.00 | 88 | 1019.2 |
| 20260506002042 | 11 | 254 | 6.4 | 17.7 | 0.00 | 0.00 | 0.00 | 88 | 1019.2 |
| 20260506001554 | 11 | 239 | 8.0 | 17.7 | 0.00 | 0.00 | 0.00 | 88 | 1019.1 |
| 20260506001042 | 12 | 265 | 4.8 | 14.5 | 0.00 | 0.00 | 0.00 | 89 | 1019.1 |
| 20260506000544 | 12 | 243 | 4.8 | 14.5 | 0.00 | 0.00 | 0.00 | 90 | 1019.1 |
| 20260506000051 | 11 | 208 | 4.8 | 14.5 | 0.00 | 0.00 | 0.00 | 90 | 1019.1 |
| 20260505235544 | 11 | 247 | 3.2 | 14.5 | 0.00 | 0.00 | 0.00 | 89 | 1019.1 |
| 20260505235041 | 11 | 235 | 6.4 | 14.5 | 0.00 | 0.00 | 0.00 | 89 | 1019.2 |
| 20260505234551 | 11 | 221 | 3.2 | 14.5 | 0.00 | 0.00 | 0.00 | 90 | 1019.2 |
| 20260505234042 | 11 | 259 | 6.4 | 14.5 | 0.00 | 0.00 | 0.00 | 89 | 1019.2 |
| 20260505233541 | 11 | 243 | 6.4 | 16.1 | 0.00 | 0.00 | 0.00 | 89 | 1019.2 |
| 20260505233047 | 11 | 218 | 6.4 | 16.1 | 0.00 | 0.00 | 0.00 | 89 | 1019.2 |
| 20260505232541 | 12 | 219 | 6.4 | 14.5 | 0.00 | 0.00 | 0.00 | 89 | 1019.2 |
| 20260505232046 | 12 | 219 | 4.8 | 14.5 | 0.00 | 0.00 | 0.00 | 89 | 1019.1 |
| 20260505231607 | 12 | 241 | 4.8 | 14.5 | 0.00 | 0.00 | 0.00 | 89 | 1019.3 |
| 20260505231041 | 12 | 247 | 4.8 | 14.5 | 0.00 | 0.00 | 0.00 | 89 | 1019.2 |
| 20260505230541 | 12 | 232 | 4.8 | 14.5 | 0.00 | 0.00 | 0.00 | 89 | 1019.1 |
| 20260505230052 | 12 | 221 | 4.8 | 14.5 | 0.00 | 0.00 | 0.00 | 88 | 1019.1 |
| 20260505225542 | 12 | 247 | 6.4 | 14.5 | 0.00 | 0.00 | 0.00 | 89 | 1019.2 |
| 20260505225041 | 12 | 299 | 4.8 | 12.9 | 0.00 | 0.00 | 0.00 | 89 | 1019.3 |
| 20260505224556 | 12 | 236 | 4.8 | 11.3 | 0.00 | 0.00 | 0.00 | 89 | 1019.1 |
| 20260505224044 | 12 | 225 | 4.8 | 14.5 | 0.00 | 0.00 | 0.00 | 88 | 1019.1 |
| 20260505223542 | 12 | 196 | 4.8 | 14.5 | 0.00 | 0.00 | 0.00 | 87 | 1019.2 |
| 20260505223048 | 12 | 246 | 3.2 | 6.4 | 0.00 | 0.00 | 0.00 | 88 | 1019.2 |
| 20260505222547 | 12 | 193 | 3.2 | 8.0 | 0.00 | 0.00 | 0.00 | 88 | 1019.1 |
| 20260505222043 | 12 | 221 | 4.8 | 16.1 | 0.00 | 0.00 | 0.00 | 88 | 1019.1 |
| 20260505221600 | 12 | 202 | 3.2 | 16.1 | 0.00 | 0.00 | 0.00 | 88 | 1019.2 |
| 20260505221043 | 12 | 269 | 6.4 | 16.1 | 0.00 | 0.00 | 0.00 | 87 | 1019.1 |
| 20260505220545 | 12 | 236 | 3.2 | 11.3 | 0.00 | 0.00 | 0.00 | 88 | 1019.2 |
| 20260505220054 | 12 | 246 | 4.8 | 9.7 | 0.00 | 0.00 | 0.00 | 88 | 1019.2 |
| 20260505215543 | 12 | 223 | 4.8 | 14.5 | 0.00 | 0.00 | 0.00 | 88 | 1019.3 |
| 20260505215043 | 12 | 229 | 6.4 | 14.5 | 0.00 | 0.00 | 0.00 | 89 | 1019.3 |
| 20260505214558 | 12 | 205 | 4.8 | 11.3 | 0.00 | 0.00 | 0.00 | 90 | 1019.4 |
| 20260505214043 | 12 | 203 | 3.2 | 14.5 | 0.00 | 0.00 | 0.00 | 91 | 1019.3 |
| 20260505213542 | 12 | 221 | 4.8 | 14.5 | 0.00 | 0.00 | 0.00 | 89 | 1019.4 |
| 20260505213053 | 12 | 261 | 3.2 | 12.9 | 0.00 | 0.00 | 0.00 | 90 | 1019.5 |
| 20260505212542 | 12 | 227 | 4.8 | 12.9 | 0.00 | 0.00 | 0.00 | 89 | 1019.4 |
| 20260505212043 | 12 | 232 | 3.2 | 11.3 | 0.00 | 0.00 | 0.00 | 90 | 1019.5 |
| 20260505211549 | 12 | 221 | 4.8 | 9.7 | 0.00 | 0.00 | 0.00 | 89 | 1019.5 |
| 20260505211044 | 12 | 205 | 4.8 | 11.3 | 0.00 | 0.00 | 0.00 | 90 | 1019.4 |
| 20260505210542 | 12 | 193 | 4.8 | 12.9 | 0.00 | 0.00 | 0.00 | 90 | 1019.5 |
| 20260505210048 | 12 | 210 | 3.2 | 12.9 | 0.00 | 0.00 | 0.00 | 91 | 1019.4 |
| 20260505205542 | 12 | 259 | 4.8 | 14.5 | 0.00 | 0.00 | 0.00 | 90 | 1019.5 |
| 20260505205044 | 12 | 209 | 3.2 | 14.5 | 0.00 | 0.00 | 0.00 | 91 | 1019.4 |
| 20260505204549 | 12 | 225 | 4.8 | 12.9 | 0.00 | 0.00 | 0.00 | 91 | 1019.5 |
| 20260505204041 | 12 | 265 | 4.8 | 12.9 | 0.00 | 0.00 | 0.00 | 91 | 1019.4 |
| 20260505203545 | 12 | 245 | 3.2 | 11.3 | 0.00 | 0.00 | 0.00 | 93 | 1019.5 |
| 20260505203107 | 12 | 205 | 4.8 | 11.3 | 0.00 | 0.00 | 0.00 | 93 | 1019.4 |
| 20260505202543 | 12 | 205 | 4.8 | 11.3 | 0.00 | 0.00 | 0.00 | 93 | 1019.5 |
| 20260505202042 | 11 | 234 | 4.8 | 11.3 | 0.00 | 0.00 | 0.00 | 93 | 1019.4 |